Weather History for Ludington, MI

Change the Weather History Date:

Monday, January 16, 2012

  Actual Average Record
Temperature  
Mean Temperature 28 °F -  
Max Temperature 37 °F 29 °F 57 °F (1949)
Min Temperature 19 °F 12 °F -15 °F (1982)
Degree Days  
Heating Degree Days 37    
Moisture  
Dew Point 23 °F    
Average Humidity 84    
Maximum Humidity 93    
Minimum Humidity 68    
Precipitation  
Precipitation 0.01 in - - ()
Sea Level Pressure  
Sea Level Pressure 29.84 in    
Wind  
Wind Speed 10 mph (SSE)    
Max Wind Speed 17 mph    
Max Gust Speed 23 mph    
Visibility 9 miles    
Events      
Averages and records for this station are not official NWS values.
T = Trace of Precipitation, MM = Missing Value Source: NWS Daily Summary

Daily Weather History Graph

Daily Weather History Graph

Search for Another Location

Airport:

Trip Planner

Search our weather history database for the weather conditions in past years. The results will help you decide how hot, cold, wet, or windy it might be!

Date:

Astronomy

Jan. 16, 2012 Rise Set
Actual Time 8:16 AM EST 5:34 PM EST
Civil Twilight 7:44 AM EST 6:06 PM EST
Nautical Twilight 7:09 AM EST 6:41 PM EST
Astronomical Twilight 6:34 AM EST 7:16 PM EST
Moon 1:20 AM EST (1/16) 11:50 AM EST (1/16)
Length of Visible Light 10h 21m
Length of Day
9h 17m
Waning Gibbous, 46% of the Moon is Illuminated
Jan 16
Waning Gibbous
Jan 23
New
Jan 30
First Quarter
Feb 7
Full
Feb 14
Last Quarter

Hourly Weather History & Observations

Time (EST) Temp. Windchill Dew Point Humidity Pressure Visibility Wind Dir Wind Speed Gust Speed Precip Events Conditions
12:15 AM 19.4 °F 4.5 °F 12.2 °F 74% 30.08 in 10.0 mi SSE 17.3 mph 21.9 mph N/A   Clear
12:34 AM 21.2 °F 10.1 °F 12.2 °F 68% 30.07 in 10.0 mi SSE 10.4 mph 21.9 mph N/A   Clear
12:55 AM 21.2 °F 9.5 °F 14.0 °F 74% 30.07 in 10.0 mi SSE 11.5 mph 19.6 mph N/A   Clear
1:14 AM 21.2 °F 10.1 °F 14.0 °F 74% 30.05 in 10.0 mi SSE 10.4 mph - N/A   Clear
1:34 AM 21.2 °F 10.9 °F 14.0 °F 74% 30.04 in 10.0 mi SSE 9.2 mph - N/A   Clear
1:55 AM 21.2 °F 9.5 °F 14.0 °F 74% 30.02 in 10.0 mi SSE 11.5 mph - N/A   Clear
2:14 AM 21.2 °F 10.9 °F 14.0 °F 74% 30.02 in 10.0 mi SSE 9.2 mph 17.3 mph N/A   Clear
2:35 AM 21.2 °F 7.8 °F 14.0 °F 74% 30.01 in 10.0 mi SSE 15.0 mph 23.0 mph N/A   Clear
2:55 AM 21.2 °F 7.8 °F 15.8 °F 80% 29.99 in 10.0 mi SSE 15.0 mph 20.7 mph N/A   Clear
3:14 AM 21.2 °F 10.1 °F 15.8 °F 80% 29.97 in 10.0 mi SSE 10.4 mph 16.1 mph N/A   Clear
3:35 AM 21.2 °F 10.1 °F 15.8 °F 80% 29.97 in 10.0 mi SSE 10.4 mph 18.4 mph N/A   Clear
3:55 AM 21.2 °F 9.5 °F 15.8 °F 80% 29.95 in 10.0 mi SSE 11.5 mph 17.3 mph N/A   Clear
4:14 AM 21.2 °F 9.5 °F 15.8 °F 80% 29.94 in 10.0 mi SSE 11.5 mph 17.3 mph N/A   Scattered Clouds
4:35 AM 21.2 °F 11.7 °F 15.8 °F 80% 29.92 in 10.0 mi SSE 8.1 mph 18.4 mph N/A   Scattered Clouds
4:54 AM 21.2 °F 9.5 °F 17.6 °F 86% 29.91 in 10.0 mi SSE 11.5 mph 16.1 mph N/A   Clear
5:14 AM 21.2 °F 10.1 °F 17.6 °F 86% 29.90 in 10.0 mi SSE 10.4 mph 16.1 mph N/A   Scattered Clouds
5:35 AM 21.2 °F 10.1 °F 17.6 °F 86% 29.89 in 10.0 mi SSE 10.4 mph - N/A   Clear
5:54 AM 21.2 °F 10.9 °F 17.6 °F 86% 29.87 in 10.0 mi SSE 9.2 mph 16.1 mph N/A   Clear
6:14 AM 21.2 °F 10.9 °F 17.6 °F 86% 29.87 in 10.0 mi SSE 9.2 mph - N/A   Clear
6:35 AM 21.2 °F 10.9 °F 17.6 °F 86% 29.87 in 10.0 mi SSE 9.2 mph - N/A   Clear
6:54 AM 21.2 °F 10.1 °F 17.6 °F 86% 29.86 in 10.0 mi SSE 10.4 mph 16.1 mph N/A   Clear
7:14 AM 21.2 °F 10.9 °F 17.6 °F 86% 29.86 in 10.0 mi SE 9.2 mph - N/A   Clear
7:35 AM 21.2 °F 12.6 °F 17.6 °F 86% 29.85 in 10.0 mi SE 6.9 mph - N/A   Clear
7:54 AM 21.2 °F 10.9 °F 17.6 °F 86% 29.84 in 10.0 mi SSE 9.2 mph - N/A   Clear
8:15 AM 21.2 °F 12.6 °F 17.6 °F 86% 29.84 in 7.0 mi SSE 6.9 mph - N/A   Clear
8:35 AM 21.2 °F 10.9 °F 19.4 °F 93% 29.83 in 7.0 mi SE 9.2 mph - N/A   Clear
8:54 AM 21.2 °F 10.9 °F 19.4 °F 93% 29.83 in 7.0 mi SE 9.2 mph - N/A   Clear
9:15 AM 23.0 °F 13.9 °F 19.4 °F 86% 29.83 in 7.0 mi SE 8.1 mph - N/A   Clear
9:34 AM 23.0 °F 15.8 °F 19.4 °F 86% 29.82 in 7.0 mi SSE 5.8 mph - N/A   Clear
9:54 AM 24.8 °F 17.9 °F 21.2 °F 86% 29.81 in 7.0 mi SSE 5.8 mph - N/A   Clear
10:15 AM 24.8 °F 17.9 °F 21.2 °F 86% 29.81 in 7.0 mi SSE 5.8 mph - N/A   Clear
10:35 AM 28.4 °F 22.2 °F 23.0 °F 80% 29.81 in 7.0 mi SSE 5.8 mph - N/A   Clear
10:54 AM 30.2 °F 25.4 °F 26.6 °F 86% 29.81 in 10.0 mi SE 4.6 mph - 0.01 in   Clear
10:59 AM 30.2 °F 26.7 °F 26.6 °F 86% 29.81 in 10.0 mi SSE 3.5 mph - 0.01 in   Scattered Clouds
11:15 AM 32.0 °F 25.6 °F 28.4 °F 87% 29.80 in 7.0 mi South 6.9 mph - N/A   Scattered Clouds
11:34 AM 33.8 °F 27.7 °F 30.2 °F 87% 29.79 in 10.0 mi South 6.9 mph - N/A   Scattered Clouds
11:54 AM 33.8 °F 25.8 °F 30.2 °F 87% 29.79 in 10.0 mi South 10.4 mph - N/A   Mostly Cloudy
12:15 PM 35.6 °F 29.2 °F 32.0 °F 87% 29.78 in 10.0 mi South 8.1 mph - N/A   Overcast
12:34 PM 35.6 °F 30.7 °F 32.0 °F 87% 29.77 in 10.0 mi South 5.8 mph - N/A   Overcast
12:54 PM 37.4 °F 29.3 °F 32.0 °F 81% 29.75 in 10.0 mi SW 12.7 mph 17.3 mph N/A   Overcast
1:15 PM 37.4 °F 30.3 °F 32.0 °F 81% 29.74 in 10.0 mi SW 10.4 mph 19.6 mph N/A   Overcast
1:34 PM 37.4 °F 30.3 °F 32.0 °F 81% 29.74 in 10.0 mi SW 10.4 mph - N/A   Mostly Cloudy
1:55 PM 37.4 °F 30.3 °F 32.0 °F 81% 29.74 in 10.0 mi WSW 10.4 mph - N/A   Mostly Cloudy
2:15 PM 37.4 °F 30.3 °F 32.0 °F 81% 29.74 in 10.0 mi WSW 10.4 mph - N/A   Mostly Cloudy
2:34 PM 37.4 °F 30.3 °F 32.0 °F 81% 29.73 in 10.0 mi WSW 10.4 mph - N/A   Overcast
3:14 PM 35.6 °F 30.7 °F 32.0 °F 87% 29.72 in 10.0 mi SW 5.8 mph - N/A   Overcast
3:34 PM 35.6 °F 31.7 °F 32.0 °F 87% 29.73 in 10.0 mi SW 4.6 mph - N/A   Overcast
3:55 PM 35.6 °F 31.7 °F 32.0 °F 87% 29.72 in 10.0 mi SW 4.6 mph - N/A   Overcast
4:14 PM 35.6 °F 32.8 °F 32.0 °F 87% 29.73 in 10.0 mi SW 3.5 mph - N/A   Overcast
4:35 PM 35.6 °F - 32.0 °F 87% 29.72 in 10.0 mi Calm Calm - N/A   Overcast
4:55 PM 35.6 °F 31.7 °F 32.0 °F 87% 29.73 in 10.0 mi South 4.6 mph - N/A   Overcast
5:14 PM 35.6 °F 32.8 °F 32.0 °F 87% 29.73 in 10.0 mi SSW 3.5 mph - N/A   Overcast
5:35 PM 35.6 °F - 32.0 °F 87% 29.74 in 10.0 mi Calm Calm - N/A   Overcast
5:54 PM 33.8 °F - 32.0 °F 93% 29.74 in 10.0 mi Calm Calm - N/A   Overcast
6:15 PM 33.8 °F - 32.0 °F 93% 29.75 in 7.0 mi Calm Calm - N/A   Overcast
6:35 PM 33.8 °F - 32.0 °F 93% 29.76 in 7.0 mi Calm Calm - N/A   Overcast
6:54 PM 33.8 °F - 32.0 °F 93% 29.76 in 5.0 mi Calm Calm - N/A   Overcast
7:15 PM 33.8 °F 30.8 °F 32.0 °F 93% 29.76 in 7.0 mi North 3.5 mph - N/A   Overcast
7:34 PM 33.8 °F 27.7 °F 32.0 °F 93% 29.77 in 10.0 mi North 6.9 mph - N/A   Overcast
7:54 PM 33.8 °F 30.8 °F 32.0 °F 93% 29.76 in 10.0 mi North 3.5 mph - N/A   Overcast
8:15 PM 33.8 °F 28.6 °F 32.0 °F 93% 29.77 in 10.0 mi North 5.8 mph - N/A   Overcast
8:34 PM 33.8 °F 28.6 °F 32.0 °F 93% 29.77 in 10.0 mi NNE 5.8 mph - N/A   Overcast
9:14 PM 33.8 °F 29.6 °F 32.0 °F 93% 29.77 in 7.0 mi North 4.6 mph - N/A   Overcast
9:55 PM 33.8 °F 29.6 °F 32.0 °F 93% 29.77 in 7.0 mi NE 4.6 mph - N/A   Overcast
10:15 PM 33.8 °F 29.6 °F 32.0 °F 93% 29.77 in 7.0 mi NNE 4.6 mph - N/A   Overcast
10:34 PM 33.8 °F - 32.0 °F 93% 29.77 in 7.0 mi Calm Calm - N/A   Overcast
10:55 PM 33.8 °F 30.8 °F 32.0 °F 93% 29.77 in 7.0 mi ENE 3.5 mph - N/A   Overcast
11:14 PM 33.8 °F 30.8 °F 32.0 °F 93% 29.77 in 7.0 mi NNE 3.5 mph - N/A   Overcast
11:34 PM 33.8 °F 30.8 °F 32.0 °F 93% 29.77 in 7.0 mi NE 3.5 mph - N/A   Overcast
11:55 PM 33.8 °F 28.6 °F 32.0 °F 93% 29.75 in 7.0 mi NE 5.8 mph - N/A   Overcast